Eelde, Netherlands

8:54 AM CET on January 16, 2018 (GMT +0100)
Eelde

Weather History for EHGG - May, 2012

Change the Weather History Date:

Monday, May 14, 2012

  Actual Average Record
Temperature  
Mean Temperature 52 °F -  
Max Temperature 61 °F 64 °F 82 °F (2000)
Min Temperature 42 °F 46 °F 41 °F (2003)
Degree Days  
Heating Degree Days 14    
Growing Degree Days 2 (Base 50)    
Moisture  
Dew Point 40 °F    
Average Humidity 67    
Maximum Humidity 93    
Minimum Humidity 39    
Precipitation  
Precipitation 0.00 in 0.08 in - ()
Sea Level Pressure  
Sea Level Pressure 30.02 in    
Wind  
Wind Speed 9 mph ()    
Max Wind Speed 20 mph    
Max Gust Speed -    
Visibility 7.3 miles    
Events      
Averages and records for this station are not official NWS values.
T = Trace of Precipitation, MM = Missing Value Source: Averaged Metar Reports

Daily Weather History Graph

Daily Weather History Graph

Search for Another Location

Airport or City:

Trip Planner

Search our weather history database for the weather conditions in past years. The results will help you decide how hot, cold, wet, or windy it might be!

Date:

Astronomy

May. 14, 2012 Rise Set
Actual Time 5:36 AM CEST 9:25 PM CEST
Civil Twilight 4:52 AM CEST 10:09 PM CEST
Nautical Twilight 3:50 AM CEST 11:11 PM CEST
Astronomical Twilight 1:54 AM CEST 12:57 AM CEST
Moon 2:54 AM CEST (5/14) 2:42 PM CEST (5/14)
Length of Visible Light 17h 16m
Length of Day
15h 49m
Waning Crescent, 35% of the Moon is Illuminated
May 14
Waning Crescent
May 21
New
May 28
First Quarter
Jun 4
Full
Jun 11
Last Quarter

Hourly Weather History & Observations

Time (CEST) Temp. Windchill Dew Point Humidity Pressure Visibility Wind Dir Wind Speed Gust Speed Precip Events Conditions
12:25 AM 46.4 °F 42.9 °F 41.0 °F 81% 30.21 in 6.2 mi South 6.9 mph - N/A   Unknown
12:55 AM 46.4 °F 42.9 °F 39.2 °F 76% 30.21 in 6.2 mi South 6.9 mph - N/A   Unknown
1:25 AM 44.6 °F 40.7 °F 39.2 °F 81% 30.18 in 6.2 mi South 6.9 mph - N/A   Unknown
1:55 AM 44.6 °F 40.7 °F 39.2 °F 81% 30.18 in 6.2 mi South 6.9 mph - N/A   Unknown
2:00 AM 44 °F - 39 °F 76% 30.19 in 22 mi South 6.7 mph - -  
2:25 AM 44.6 °F 40.7 °F 39.2 °F 81% 30.15 in 6.2 mi South 6.9 mph - N/A   Unknown
3:25 AM 44.6 °F 40.2 °F 37.4 °F 76% 30.15 in 6.2 mi SSW 8.1 mph - N/A   Unknown
3:55 AM 44.6 °F 39.7 °F 37.4 °F 76% 30.12 in 6.2 mi South 9.2 mph - N/A   Unknown
4:25 AM 44.6 °F 39.2 °F 37.4 °F 76% 30.12 in 6.2 mi South 10.4 mph - N/A   Unknown
4:55 AM 44.6 °F 39.2 °F 37.4 °F 76% 30.12 in 6.2 mi South 10.4 mph - N/A   Unknown
5:00 AM 44 °F - 36 °F 66% 30.12 in 25 mi South 8.9 mph - -   Partly Cloudy
5:25 AM 42.8 °F 37.5 °F 35.6 °F 76% 30.09 in 6.2 mi South 9.2 mph - N/A   Unknown
5:55 AM 42.8 °F 38.0 °F 35.6 °F 76% 30.09 in 6.2 mi South 8.1 mph - N/A   Unknown
6:25 AM 42.8 °F 37.0 °F 37.4 °F 81% 30.09 in 6.2 mi South 10.4 mph - N/A   Unknown
6:55 AM 44.6 °F 39.2 °F 37.4 °F 76% 30.06 in 6.2 mi South 10.4 mph - N/A   Unknown
7:25 AM 46.4 °F 41.9 °F 37.4 °F 71% 30.06 in 6.2 mi South 9.2 mph - N/A   Unknown
7:55 AM 46.4 °F 41.5 °F 39.2 °F 76% 30.06 in 6.2 mi SSW 10.4 mph - N/A   Unknown
8:00 AM 48 °F - 39 °F 63% 30.06 in 16 mi SSW 11.2 mph - -   Mostly Cloudy
8:25 AM 48.2 °F - 39.2 °F 71% 30.04 in 6.2 mi SSW 11.5 mph - N/A   Unknown
8:55 AM 50.0 °F - 39.2 °F 66% 30.04 in 6.2 mi SSW 11.5 mph - N/A   Unknown
9:25 AM 50.0 °F - 39.2 °F 66% 30.04 in 6.2 mi SSW 13.8 mph - N/A   Unknown
9:55 AM 51.8 °F - 41.0 °F 67% 30.04 in 6.2 mi SSW 13.8 mph - N/A   Unknown
10:25 AM 51.8 °F - 42.8 °F 71% 30.04 in 6.2 mi SW 16.1 mph - N/A   Unknown
10:55 AM 55.4 °F - 42.8 °F 63% 30.04 in 6.2 mi SW 13.8 mph - N/A   Unknown
11:00 AM 54 °F - 41 °F 51% 30.04 in 19 mi SW 15.7 mph - -   Mostly Cloudy
11:25 AM 53.6 °F - 39.2 °F 58% 30.01 in 6.2 mi WSW 18.4 mph - N/A   Unknown
11:55 AM 55.4 °F - 41.0 °F 58% 30.01 in 6.2 mi SW 19.6 mph - N/A   Unknown
12:25 PM 55.4 °F - 41.0 °F 58% 30.01 in 6.2 mi SW 16.1 mph - N/A   Unknown
12:55 PM 55.4 °F - 41.0 °F 58% 30.01 in 6.2 mi SW 19.6 mph - N/A   Partly Cloudy
1:25 PM 57.2 °F - 42.8 °F 59% 30.01 in 6.2 mi WSW 15.0 mph - N/A   Partly Cloudy
1:55 PM 59.0 °F - 41.0 °F 51% 29.98 in 6.2 mi WSW 16.1 mph - N/A   Partly Cloudy
2:00 PM 58 °F - 42 °F 44% 29.99 in 17 mi SW 17.9 mph - -   Scattered Clouds
2:25 PM 59.0 °F - 42.8 °F 55% 29.98 in 6.2 mi SW 17.3 mph - N/A   Scattered Clouds
2:55 PM 59.0 °F - 42.8 °F 55% 29.98 in 6.2 mi WSW 15.0 mph - N/A   Partly Cloudy
3:25 PM 59.0 °F - 42.8 °F 55% 29.95 in 6.2 mi SW 17.3 mph - N/A   Partly Cloudy
3:55 PM 59.0 °F - 42.8 °F 55% 29.95 in 6.2 mi WSW 13.8 mph - N/A   Scattered Clouds
4:25 PM 57.2 °F - 41.0 °F 55% 29.95 in 6.2 mi West 16.1 mph - N/A   Partly Cloudy
4:55 PM 57.2 °F - 41.0 °F 55% 29.95 in 6.2 mi WSW 15.0 mph - N/A   Unknown
5:00 PM 58 °F - 40 °F 39% 29.96 in 19 mi West 13.4 mph - -   Overcast
5:25 PM 57.2 °F - 41.0 °F 55% 29.95 in 6.2 mi West 11.5 mph - N/A   Unknown
5:55 PM 55.4 °F - 39.2 °F 54% 29.95 in 6.2 mi West 13.8 mph - N/A   Unknown
6:25 PM 53.6 °F - 42.8 °F 67% 29.95 in 6.2 mi West 11.5 mph - N/A   Unknown
6:55 PM 53.6 °F - 42.8 °F 67% 29.92 in 6.2 mi West 8.1 mph - N/A   Unknown
7:25 PM 53.6 °F - 39.2 °F 58% 29.92 in 6.2 mi West 8.1 mph - N/A   Unknown
7:55 PM 51.8 °F - 39.2 °F 62% 29.92 in 6.2 mi West 5.8 mph - N/A   Unknown
8:00 PM 52 °F - 40 °F 53% 29.93 in 25 mi WSW 4.5 mph - -   Overcast
8:25 PM 51.8 °F - 39.2 °F 62% 29.92 in 6.2 mi West 3.5 mph - N/A   Unknown
8:55 PM 51.8 °F - 39.2 °F 62% 29.92 in 6.2 mi West 5.8 mph - N/A   Unknown
9:25 PM 48.2 °F - 39.2 °F 71% 29.92 in 6.2 mi West 4.6 mph - N/A   Unknown
9:55 PM 46.4 °F 45.2 °F 37.4 °F 71% 29.89 in 6.2 mi West 3.5 mph - N/A   Unknown
10:25 PM 46.4 °F - 39.2 °F 76% 29.89 in 6.2 mi WNW 1.2 mph - N/A   Unknown
10:55 PM 46.4 °F - 41.0 °F 81% 29.89 in 6.2 mi Variable 1.2 mph - N/A   Unknown
11:00 PM 44 °F - 40 °F 79% 29.90 in 16 mi Calm Calm - -   Partly Cloudy
11:25 PM 42.8 °F - 41.0 °F 93% 29.89 in 6.2 mi Variable 1.2 mph - N/A   Unknown
11:55 PM 44.6 °F 42.2 °F 41.0 °F 87% 29.89 in 6.2 mi ESE 4.6 mph - N/A   Unknown